Regional Weather Roundup
Issued by NWS

Home | Current Version | Previous Version | Graphics & Text | Print | Product List | Glossary On
Versions: 1 2 3 4 5 6 7 8 9 10 11 12 13 14 15 16 17 18 19 20 21 22 23 24 25 26 27 28 29 30 31 32 33 34 35 36 37 38 39 40 41 42 43 44 45 46 47 48 49 50
000
ASUS45 KBOI 020710
RWRID
WEATHER ROUNDUP FOR IDAHO
NATIONAL WEATHER SERVICE BOISE ID
100 AM MDT THU APR 02 2015

NOTE: "FAIR" INDICATES FEW OR NO CLOUDS BELOW 12000 FEET
WITH NO SIGNIFICANT WEATHER AND/OR OBSTRUCTIONS TO VISIBILITY

IDZ012-014-020800-
SOUTHWEST IDAHO


CITY           SKY/WX    TMP DP  RH WIND       PRES   REMARKS
BOISE          CLEAR     37  23  56 W8        30.12S WCI  31
CALDWELL       CLEAR     36  19  51 W8        30.16S WCI  29
MOUNTAIN HOME  CLEAR     31  19  58 NW7       30.11S WCI  25
$$

IDZ016-017-020800-
SOUTHCENTRAL IDAHO


CITY           SKY/WX    TMP DP  RH WIND       PRES   REMARKS
BURLEY         MOCLDY    35  17  47 SW10      30.04R WCI  27
JEROME         PTCLDY    31  15  52 W6        30.06S WCI  25
TWIN FALLS     MOCLDY    35  17  47 W14       30.06S WCI  26
$$

IDZ019>023-020800-
SOUTHEAST IDAHO


CITY           SKY/WX    TMP DP  RH WIND       PRES   REMARKS
IDAHO FALLS    PTCLDY    29  19  66 N3        30.02R
POCATELLO      CLEAR     33  10  38 W12       30.03F WCI  24
REXBURG        PTCLDY    31  22  69 N5        30.02R WCI  26
$$

IDZ006-010-011-018-031-032-020800-
CENTRAL IDAHO MOUNTAINS


CITY           SKY/WX    TMP DP  RH WIND       PRES   REMARKS
MCCALL         CLEAR     25  20  81 N3        30.09S
HAILEY         CLEAR     30  12  47 NW10      30.03F WCI  21
STANLEY          N/A     20  14  77 CALM      30.06S
SALMON         MOCLDY    30  27  86 S5        30.10S WCI  25
CHALLIS        CLOUDY    31  16  54 NW5       30.07S WCI  26
$$

IDZ002-004-006-007-026-020800-
NORTHERN IDAHO


CITY           SKY/WX    TMP DP  RH WIND       PRES   REMARKS
LEWISTON       LGT RAIN  41  36  82 SE9       30.18S
LOWELL           N/A     38  36  92 CALM      30.22R
COEUR D`ALENE  CLEAR     34  28  80 S8        30.14R WCI  27
MULLAN PASS    CLOUDY    22  20  92 NW3       30.02R
$$


USA.gov is the U.S. government's official web portal to all federal, state and local government web resources and services.